Content
SEND FEEDBACK

Daily
Averages
Monthly
Summary
United States of America

REEFER CITY, CALIFORNIA


Home > North America > United States > California
Elevation: 2680 feet     Latitude: 35 02N     Longitude: 118 09W

WEATHER
 
SELECT A DAY
Number of Records: 122,209;   Date Range: 1/2/95 - 8/30/14
 
SHARE

PRINT THIS DATA

[ ← Previous Day ]
WEATHER ALMANAC - JANUARY 31, 2013
[ Next Day → ]
[ °C ]   °F
Weather ElementAverageHighLow
Temperature49.9 °F64.4 °F (1:55 pm)37.4 °F (4:35 am)
Dewpoint28.3 °F30.2 °F (8:15 am)26.6 °F (4:55 am)
Humidity46 %70 % (4:35 am)26 % (1:35 pm)
Barometer30.26 in30.33 in (9:55 am)30.20 in (4:35 pm)
Wind Speed4.5 mph10.4 mph (10:35 pm)
Weather ElementAverage
Visibility9.9 mi
Wind DirectionSSW (201.7 °)

Weather ElementTotal
Precipitation---
Heating Degree Days14.1 (Base 65)
Growing Degree Days0.9 (Base 50)
Averaged from 69 records on January 31, 2013
WEATHER CONDITIONS BREAKOUT
WIND DIRECTION BREAKOUT
WEATHER BY HOUR - JANUARY 31, 2013
[ °C ]   °F
Local TimeTemperatureDewpointHumidityBarometerVisibilityWind DirectionWind SpeedGust SpeedPrecipitationEventsConditions
12:35 AM41.0 °F28.4 °F61 %30.30 in10.0 miNW (310°)6.9 mphClear
12:55 AM41.0 °F28.4 °F61 %30.29 in10.0 miNW (310°)6.9 mphClear
1:15 AM41.0 °F28.4 °F61 %30.29 in10.0 miNW (320°)8.1 mphClear
1:35 AM41.0 °F28.4 °F61 %30.29 in10.0 miNW (320°)8.1 mphClear
1:55 AM41.0 °F28.4 °F61 %30.29 in10.0 miNW (320°)8.1 mphClear
2:15 AM39.2 °F28.4 °F65 %30.28 in10.0 miNNW (330°)8.1 mphClear
2:35 AM41.0 °F28.4 °F61 %30.28 in10.0 miNNW (340°)8.1 mphClear
2:55 AM41.0 °F28.4 °F61 %30.28 in10.0 miNorth (350°)6.9 mphClear
3:15 AM41.0 °F28.4 °F61 %30.28 in10.0 miNNW (340°)6.9 mphClear
3:35 AM41.0 °F28.4 °F61 %30.28 in10.0 miNNW (340°)6.9 mphClear
3:55 AM39.2 °F28.4 °F65 %30.28 in10.0 miNNW (330°)6.9 mphClear
4:15 AM39.2 °F28.4 °F65 %30.28 in10.0 miNNW (330°)5.8 mphClear
4:35 AM37.4 °F28.4 °F70 %30.27 in10.0 miNNW (330°)5.8 mphClear
4:55 AM37.4 °F26.6 °F65 %30.27 in10.0 miNW (310°)4.6 mphClear
5:15 AM37.4 °F26.6 °F65 %30.27 in10.0 miCalmClear
5:55 AM37.4 °F26.6 °F65 %30.28 in10.0 miNNW (330°)3.5 mphClear
6:15 AM39.2 °F28.4 °F65 %30.28 in10.0 miNW (310°)4.6 mphClear
6:35 AM37.4 °F28.4 °F70 %30.28 in10.0 miNorth (350°)4.6 mphClear
6:55 AM37.4 °F28.4 °F70 %30.28 in10.0 miNNW (330°)6.9 mphClear
7:15 AM39.2 °F28.4 °F65 %30.29 in10.0 miNW (310°)4.6 mphClear
7:35 AM39.2 °F28.4 °F65 %30.29 in10.0 miWNW (300°)3.5 mphClear
7:55 AM44.6 °F28.4 °F53 %30.30 in10.0 miCalmClear
8:15 AM48.2 °F30.2 °F50 %30.30 in10.0 miCalmClear
8:35 AM48.2 °F30.2 °F50 %30.31 in10.0 miCalmClear
8:55 AM50.0 °F28.4 °F43 %30.31 in10.0 miCalmClear
9:15 AM50.0 °F30.2 °F47 %30.32 in10.0 miSE (130°)3.5 mphClear
9:30 AM50.0 °F28.4 °F43 %30.32 in10.0 miESE (120°)3.5 mphClear
9:55 AM51.8 °F28.4 °F41 %30.33 in10.0 miCalmClear
10:15 AM53.6 °F28.4 °F38 %30.33 in10.0 miESE (120°)4.6 mphClear
10:35 AM55.4 °F28.4 °F36 %30.33 in10.0 miESE (110°)3.5 mphClear
10:55 AM55.4 °F28.4 °F36 %30.32 in10.0 miSSE (150°)3.5 mphClear
11:15 AM57.2 °F28.4 °F33 %30.32 in10.0 miCalmClear
11:35 AM59.0 °F28.4 °F31 %30.31 in10.0 miCalmClear
11:55 AM59.0 °F28.4 °F31 %30.30 in10.0 miEast (90°)3.5 mphClear
12:15 PM60.8 °F28.4 °F29 %30.29 in10.0 miSE (130°)5.8 mphClear
12:35 PM60.8 °F28.4 °F29 %30.28 in10.0 miCalmClear
12:55 PM60.8 °F28.4 °F29 %30.27 in10.0 miCalmClear
1:15 PM62.6 °F28.4 °F27 %30.26 in10.0 miSouth (170°)4.6 mphClear
1:35 PM62.6 °F26.6 °F26 %30.25 in10.0 miEast (100°)3.5 mphClear
1:55 PM64.4 °F28.4 °F26 %30.24 in2.5 miCalmClear
2:15 PM62.6 °F28.4 °F27 %30.24 in9.0 miCalmClear
2:35 PM62.6 °F28.4 °F27 %30.23 in10.0 miCalmClear
2:55 PM64.4 °F28.4 °F26 %30.22 in10.0 miESE (120°)3.5 mphClear
3:15 PM64.4 °F28.4 °F26 %30.22 in10.0 miEast (90°)3.5 mphClear
3:35 PM62.6 °F28.4 °F27 %30.21 in10.0 miEast (100°)5.8 mphClear
3:55 PM64.4 °F28.4 °F26 %30.21 in10.0 miSSE (150°)6.9 mphClear
4:15 PM62.6 °F26.6 °F26 %30.21 in10.0 miCalmClear
4:35 PM62.6 °F28.4 °F27 %30.20 in10.0 miSE (140°)3.5 mphClear
4:55 PM62.6 °F28.4 °F27 %30.20 in10.0 miSSE (150°)4.6 mphClear
5:15 PM60.8 °F28.4 °F29 %30.20 in10.0 miSouth (170°)4.6 mphClear
5:35 PM59.0 °F28.4 °F31 %30.20 in10.0 miSouth (180°)3.5 mphClear
5:55 PM59.0 °F28.4 °F31 %30.21 in10.0 miSSW (200°)3.5 mphClear
6:15 PM53.6 °F28.4 °F38 %30.21 in10.0 miWest (270°)3.5 mphClear
6:35 PM50.0 °F28.4 °F43 %30.22 in10.0 miWNW (300°)4.6 mphClear
6:55 PM50.0 °F28.4 °F43 %30.22 in10.0 miNW (310°)5.8 mphClear
7:15 PM50.0 °F28.4 °F43 %30.21 in10.0 miNW (310°)6.9 mphClear
7:35 PM48.2 °F28.4 °F46 %30.22 in10.0 miNW (310°)5.8 mphClear
7:55 PM48.2 °F28.4 °F46 %30.22 in10.0 miNW (310°)6.9 mphClear
8:15 PM48.2 °F28.4 °F46 %30.23 in10.0 miNW (310°)5.8 mphClear
8:35 PM48.2 °F28.4 °F46 %30.23 in10.0 miNW (310°)6.9 mphClear
8:55 PM48.2 °F28.4 °F46 %30.23 in10.0 miNW (310°)6.9 mphClear
9:15 PM48.2 °F28.4 °F46 %30.23 in10.0 miNW (320°)8.1 mphClear
9:35 PM46.4 °F28.4 °F50 %30.23 in10.0 miNW (320°)8.1 mphClear
10:15 PM46.4 °F28.4 °F50 %30.22 in10.0 miNW (320°)8.1 mphClear
10:35 PM46.4 °F28.4 °F50 %30.22 in10.0 miNW (320°)10.4 mphClear
10:55 PM44.6 °F28.4 °F53 %30.22 in10.0 miNNW (330°)9.2 mphClear
11:15 PM44.6 °F28.4 °F53 %30.22 in10.0 miNNW (330°)9.2 mphClear
11:35 PM44.6 °F28.4 °F53 %30.22 in10.0 miCalmClear
11:55 PM44.6 °F28.4 °F53 %30.23 in10.0 miNW (310°)5.8 mphClear
Hourly data recorded from KMHV, located miles away from Reefer City, California







STORIES FROM OUR PARTNERS